When you browse on this site, cookies collect data to enhance your experience and personalize the content and advertising you see.
Visit our Privacy Policy to learn more. By continuing to use the site, you agree to this use of cookies and data.
EN

Hourly Weather Godzinowice

Today, 22 September, Tuesday

Time Temperature Precipitation Wind Pressure Humidity
00:00 +16°C° 0 mm 2 mps 750 mmHg 64%
01:00 +16°C° 0 mm 2 mps 749 mmHg 64%
02:00 +15°C° 0 mm 2 mps 749 mmHg 63%
03:00 +15°C° 0 mm 2 mps 749 mmHg 62%
04:00 +15°C° 0 mm 2 mps 749 mmHg 61%
05:00 +14°C° 0 mm 3 mps 749 mmHg 61%
06:00 +16°C° 0 mm 3 mps 749 mmHg 60%
07:00 +16°C° 0 mm 3 mps 749 mmHg 58%
08:00 +19°C° 0 mm 3 mps 749 mmHg 52%
09:00 +21°C° 0 mm 4 mps 748 mmHg 46%
10:00 +23°C° 0 mm 4 mps 748 mmHg 39%
11:00 +25°C° 0 mm 4 mps 748 mmHg 38%
12:00 +26°C° 0 mm 5 mps 748 mmHg 37%
13:00 +27°C° 0 mm 5 mps 748 mmHg 36%
14:00 +27°C° 0 mm 5 mps 747 mmHg 39%
15:00 +26°C° 0 mm 4 mps 746 mmHg 42%
16:00 +26°C° 0 mm 4 mps 746 mmHg 45%
17:00 +23°C° 0 mm 4 mps 746 mmHg 49%
18:00 +21°C° 0 mm 3 mps 746 mmHg 54%
19:00 +20°C° 0 mm 3 mps 746 mmHg 58%
20:00 +19°C° 0 mm 3 mps 746 mmHg 59%
21:00 +19°C° 0 mm 3 mps 745 mmHg 60%
22:00 +18°C° 0 mm 3 mps 745 mmHg 60%
23:00 +18°C° 0 mm 3 mps 745 mmHg 61%

Tomorrow, 23 September, Wednesday

Time Temperature Precipitation Wind Pressure Humidity
00:00 +17°C° 0 mm 3 mps 745 mmHg 62%
01:00 +17°C° 0 mm 3 mps 745 mmHg 63%
02:00 +16°C° 0 mm 3 mps 744 mmHg 63%
03:00 +16°C° 0 mm 3 mps 744 mmHg 63%
04:00 +16°C° 0 mm 3 mps 744 mmHg 63%
05:00 +16°C° 0 mm 3 mps 744 mmHg 63%
06:00 +17°C° 0 mm 3 mps 744 mmHg 62%
07:00 +17°C° 0 mm 2 mps 743 mmHg 62%
08:00 +19°C° 0 mm 3 mps 743 mmHg 58%
09:00 +21°C° 0 mm 3 mps 743 mmHg 53%
10:00 +24°C° 0 mm 3 mps 743 mmHg 49%
11:00 +24°C° 0 mm 3 mps 743 mmHg 50%
12:00 +24°C° 0 mm 3 mps 743 mmHg 51%
13:00 +25°C° 0 mm 4 mps 743 mmHg 52%
14:00 +25°C° 0 mm 3 mps 743 mmHg 53%
15:00 +25°C° 0 mm 3 mps 742 mmHg 55%
16:00 +25°C° 0 mm 3 mps 742 mmHg 56%
17:00 +22°C° 0 mm 3 mps 742 mmHg 61%
18:00 +21°C° 0 mm 2 mps 743 mmHg 67%
19:00 +19°C° 0 mm 2 mps 743 mmHg 73%
20:00 +19°C° 0 mm 2 mps 743 mmHg 75%
21:00 +18°C° 0 mm 2 mps 743 mmHg 78%
22:00 +18°C° 0 mm 2 mps 743 mmHg 81%
23:00 +18°C° 0 mm 2 mps 743 mmHg 82%

Day after tomorrow, 24 September, Thursday

Time Temperature Precipitation Wind Pressure Humidity
00:00 +18°C° 0 mm 1 mps 743 mmHg 83%
01:00 +18°C° 0 mm 1 mps 743 mmHg 84%
02:00 +18°C° 0 mm 1 mps 743 mmHg 85%
03:00 +18°C° 0 mm 1 mps 743 mmHg 87%
04:00 +16°C° 0 mm 1 mps 743 mmHg 89%
05:00 +18°C° 0 mm 1 mps 743 mmHg 87%
06:00 +17°C° 0 mm 2 mps 743 mmHg 85%
07:00 +17°C° 0 mm 2 mps 743 mmHg 83%
08:00 +19°C° 0 mm 2 mps 743 mmHg 74%
09:00 +21°C° 0 mm 3 mps 743 mmHg 65%
10:00 +24°C° 0 mm 3 mps 743 mmHg 55%
11:00 +25°C° 0 mm 3 mps 743 mmHg 52%
12:00 +26°C° 0 mm 4 mps 743 mmHg 49%
13:00 +26°C° 0 mm 4 mps 743 mmHg 46%
14:00 +26°C° 0 mm 4 mps 743 mmHg 48%
15:00 +26°C° 0 mm 3 mps 743 mmHg 50%
16:00 +25°C° 0 mm 3 mps 743 mmHg 53%
17:00 +24°C° 0 mm 2 mps 743 mmHg 58%
18:00 +21°C° 0 mm 2 mps 743 mmHg 63%
19:00 +20°C° 0 mm 2 mps 743 mmHg 67%
20:00 +19°C° 0 mm 2 mps 743 mmHg 70%
21:00 +19°C° 0 mm 2 mps 742 mmHg 72%
22:00 +18°C° 0 mm 2 mps 742 mmHg 75%
23:00 +18°C° 0 mm 2 mps 742 mmHg 77%

25 September, Friday

Time Temperature Precipitation Wind Pressure Humidity
00:00 +17°C° 0 mm 2 mps 741 mmHg 79%
01:00 +17°C° 0 mm 2 mps 741 mmHg 82%
02:00 +16°C° 0 mm 2 mps 740 mmHg 83%
03:00 +16°C° 0 mm 3 mps 739 mmHg 85%
04:00 +16°C° 0 mm 3 mps 738 mmHg 86%
05:00 +17°C° 0 mm 4 mps 737 mmHg 82%
06:00 +17°C° 0 mm 5 mps 737 mmHg 77%
07:00 +17°C° 0 mm 6 mps 736 mmHg 73%
08:00 +19°C° 0 mm 6 mps 736 mmHg 70%
09:00 +20°C° 0 mm 7 mps 735 mmHg 67%
10:00 +21°C° 0 mm 7 mps 735 mmHg 64%
11:00 +20°C° 0.3 mm 7 mps 734 mmHg 69%
12:00 +20°C° 0.3 mm 7 mps 734 mmHg 74%
13:00 +18°C° 0.3 mm 8 mps 733 mmHg 79%
14:00 +17°C° 0.3 mm 7 mps 733 mmHg 80%
15:00 +16°C° 0.3 mm 6 mps 734 mmHg 81%
16:00 +15°C° 0.3 mm 5 mps 734 mmHg 83%
17:00 +15°C° 0 mm 5 mps 734 mmHg 83%
18:00 +14°C° 0 mm 5 mps 734 mmHg 84%
19:00 +13°C° 0 mm 4 mps 735 mmHg 84%
20:00 +13°C° 0.1 mm 4 mps 735 mmHg 85%
21:00 +13°C° 0.1 mm 4 mps 735 mmHg 86%
22:00 +12°C° 0.1 mm 4 mps 736 mmHg 87%
23:00 +12°C° 0 mm 4 mps 735 mmHg 87%

26 September, Saturday

Time Temperature Precipitation Wind Pressure Humidity
00:00 +12°C° 0 mm 4 mps 735 mmHg 87%
01:00 +12°C° 0 mm 4 mps 735 mmHg 86%
02:00 +10°C° 0.8 mm 5 mps 734 mmHg 88%
03:00 +10°C° 0.8 mm 5 mps 733 mmHg 89%
04:00 +10°C° 0.8 mm 5 mps 733 mmHg 91%
05:00 +10°C° 1.9 mm 5 mps 733 mmHg 92%
06:00 +10°C° 1.9 mm 6 mps 732 mmHg 93%
07:00 +10°C° 1.9 mm 6 mps 732 mmHg 94%
08:00 +9°C° 1.6 mm 7 mps 732 mmHg 94%
09:00 +9°C° 1.6 mm 7 mps 732 mmHg 93%
10:00 +9°C° 1.6 mm 8 mps 732 mmHg 92%
11:00 +9°C° 0.2 mm 7 mps 732 mmHg 92%
12:00 +9°C° 0.2 mm 6 mps 733 mmHg 91%
13:00 +9°C° 0.2 mm 5 mps 733 mmHg 90%
14:00 +9°C° 0.3 mm 5 mps 733 mmHg 91%
15:00 +9°C° 0.3 mm 5 mps 734 mmHg 91%
16:00 +8°C° 0.3 mm 5 mps 734 mmHg 91%
17:00 +8°C° 0 mm 5 mps 735 mmHg 90%
18:00 +8°C° 0 mm 5 mps 735 mmHg 89%
19:00 +8°C° 0 mm 5 mps 736 mmHg 88%
20:00 +8°C° 0 mm 5 mps 736 mmHg 88%
21:00 +9°C° 0 mm 6 mps 735 mmHg 89%
22:00 +9°C° 0 mm 6 mps 735 mmHg 89%
23:00 +8°C° 0.9 mm 6 mps 735 mmHg 90%

27 September, Sunday

Time Temperature Precipitation Wind Pressure Humidity
00:00 +8°C° 0.9 mm 7 mps 734 mmHg 91%
01:00 +8°C° 0.9 mm 7 mps 733 mmHg 92%
02:00 +7°C° 2 mm 8 mps 732 mmHg 92%
03:00 +7°C° 2 mm 8 mps 731 mmHg 93%
04:00 +9°C° 2 mm 8 mps 730 mmHg 94%
05:00 +9°C° 2.8 mm 8 mps 730 mmHg 94%
06:00 +10°C° 2.8 mm 8 mps 729 mmHg 94%
07:00 +10°C° 2.8 mm 8 mps 729 mmHg 94%
08:00 +11°C° 0.2 mm 7 mps 729 mmHg 93%
09:00 +13°C° 0.2 mm 6 mps 729 mmHg 93%
10:00 +14°C° 0.2 mm 5 mps 729 mmHg 92%
11:00 +14°C° 0.1 mm 4 mps 729 mmHg 91%
12:00 +14°C° 0.1 mm 4 mps 729 mmHg 89%
13:00 +16°C° 0.1 mm 3 mps 729 mmHg 88%
14:00 +15°C° 0.1 mm 4 mps 730 mmHg 85%
15:00 +15°C° 0.1 mm 4 mps 730 mmHg 82%
16:00 +15°C° 0.1 mm 4 mps 730 mmHg 80%
17:00 +14°C° 0.1 mm 3 mps 731 mmHg 82%
18:00 +13°C° 0.1 mm 3 mps 731 mmHg 85%
19:00 +13°C° 0.1 mm 2 mps 732 mmHg 88%
20:00 +12°C° 0 mm 2 mps 732 mmHg 87%
21:00 +12°C° 0 mm 2 mps 733 mmHg 87%
22:00 +10°C° 0 mm 2 mps 733 mmHg 86%
23:00 +10°C° 0 mm 2 mps 734 mmHg 88%
Show more